FLOCK 2K-20 (42885 NORAD) Tracking and Keplerian Element Data

This shows tracking and keplerian element data for the satellite.

Feedback or suggestion? Click here.




ElementValue
Catalog42885
NameFLOCK 2K-20
Epoch Orbit3282
Epoch Day45.61777389
Epoch Year2018
RAAN308.4691
Inclination96.9929
Eccentricity0.0012506
Argument of Perigee176.2557
Mean Anonmoly183.8784
Mean Motion15.3554702
Decay Rate2.833E-05
L11 42885U 17042BN 18045.61777389 .00002833 00000-0 83987-4 0 9992
L22 42885 96.9929 308.4691 0012506 176.2557 183.8784 15.35547020 32827

Live tracking and technical data element details for FLOCK 2K-20 (NORAD 42885). FLOCK 2K-20 can be tracked NOW for your location showing map with azimuth and elevation plus other details from your city location.

Track the satellite on the map from your city or location and see movement details for azimuth, elevation, latitude, longitude, range, height, and movement on the map or in text.







IsCatalogInMostPopularTable: catalog: 42885, numindb: 102
Update: records affected: 1



GetName: 42885 FLOCK 2K-20

Hit Count: updated at: Sat, 21 Jul 2018 08:05:50 GMT